Location: Newark
(40.7066°N, 111.8219°W)
Time: 04:04:50
(UTC+00:00)

Transit 2A Rocket - Pass Details

Date: 20 November 2019
Orbit: 594 x 909 km, 66.7° (Epoch: 05 December)

Event Time Altitude Azimuth Distance (km) Brightness Sun altitude
Rises 12:11:14 0° 346° (NNW) 2,844 - -24.2°
Exits shadow 12:13:34 - 2° (N) 2,151 7.3 -23.7°
Reaches altitude 10° 12:14:24 10° 11° (N) 1,953 7.2 -23.6°
Maximum altitude 12:16:52 15° 45° (NE) 1,687 7.2 -23.1°
Drops below altitude 10° 12:19:22 10° 80° (E) 1,998 8.2 -22.6°
Sets 12:22:40 0° 104° (ESE) 2,954 9.5 -22.0°
